Meadville, PA

5:09 PM EDT on May 28, 2017 (GMT -0400)
Port Meadville

Weather History for KGKJ - January, 2014

Change the Weather History Date:

Sunday, January 12, 2014

  Actual Average Record
Temperature  
Mean Temperature 32 °F -  
Max Temperature 35 °F 28 °F 59 °F (2013)
Min Temperature 30 °F 11 °F -11 °F (1981)
Degree Days  
Heating Degree Days 32    
Moisture  
Dew Point 26 °F    
Average Humidity 81    
Maximum Humidity 93    
Minimum Humidity 67    
Precipitation  
Precipitation 0.00 in - - ()
Sea Level Pressure  
Sea Level Pressure 29.85 in    
Wind  
Wind Speed 13 mph (WSW)    
Max Wind Speed 20 mph    
Max Gust Speed 29 mph    
Visibility 9 miles    
Events Snow    
Averages and records for this station are not official NWS values.
T = Trace of Precipitation, MM = Missing Value Source: NWS Daily Summary

Daily Weather History Graph

Daily Weather History Graph

Search for Another Location

Airport or City:

Trip Planner

Search our weather history database for the weather conditions in past years. The results will help you decide how hot, cold, wet, or windy it might be!

Date:

Astronomy

Jan. 12, 2014 Rise Set
Actual Time 7:46 AM EST 5:12 PM EST
Civil Twilight 7:15 AM EST 5:43 PM EST
Nautical Twilight 6:41 AM EST 6:17 PM EST
Astronomical Twilight 6:07 AM EST 6:50 PM EST
Moon 2:39 PM EST (1/12) 4:43 AM EST (1/12)
Length of Visible Light 10h 27m
Length of Day
9h 25m
Waxing Gibbous, 89% of the Moon is Illuminated
Jan 12
Waxing Gibbous
Jan 15
Full
Jan 24
Last Quarter
Jan 30
New
Feb 6
First Quarter

Hourly Weather History & Observations

Time (EST) Temp. Windchill Dew Point Humidity Pressure Visibility Wind Dir Wind Speed Gust Speed Precip Events Conditions
12:05 AM 33.8 °F 23.2 °F 26.6 °F 75% 29.61 in 10.0 mi West 17.3 mph 28.8 mph N/A   Overcast
12:49 AM 32.0 °F 21.2 °F 26.6 °F 80% 29.62 in 10.0 mi WSW 16.1 mph 23.0 mph N/A   Overcast
12:53 AM 32.0 °F 20.8 °F 27.0 °F 82% 29.64 in 10.0 mi West 17.3 mph 24.2 mph N/A   Overcast
1:03 AM 32.0 °F 20.8 °F 26.6 °F 80% 29.62 in 10.0 mi West 17.3 mph 28.8 mph N/A   Overcast
1:46 AM 32.0 °F 21.2 °F 26.6 °F 80% 29.64 in 10.0 mi WSW 16.1 mph 24.2 mph N/A   Overcast
1:53 AM 32.0 °F 20.1 °F 26.1 °F 79% 29.66 in 10.0 mi WSW 19.6 mph 28.8 mph N/A   Overcast
2:53 AM 32.0 °F 23.0 °F 26.1 °F 79% 29.69 in 10.0 mi WSW 11.5 mph - N/A   Overcast
3:53 AM 32.0 °F 23.6 °F 26.1 °F 79% 29.72 in 10.0 mi WSW 10.4 mph - N/A   Overcast
4:53 AM 32.0 °F 23.0 °F 27.0 °F 82% 29.74 in 9.0 mi WSW 11.5 mph - N/A   Overcast
5:19 AM 30.2 °F 21.9 °F 26.6 °F 86% 29.72 in 8.0 mi WSW 9.2 mph - N/A   Overcast
5:53 AM 30.9 °F 22.8 °F 28.0 °F 89% 29.77 in 6.0 mi WSW 9.2 mph - N/A   Overcast
6:38 AM 30.2 °F 20.8 °F 26.6 °F 86% 29.77 in 9.0 mi West 11.5 mph 17.3 mph N/A   Overcast
6:53 AM 30.9 °F 21.7 °F 27.0 °F 85% 29.81 in 9.0 mi West 11.5 mph - N/A   Overcast
7:53 AM 30.9 °F 21.7 °F 27.0 °F 85% 29.84 in 10.0 mi West 11.5 mph 17.3 mph N/A   Overcast
8:53 AM 30.9 °F 21.2 °F 27.0 °F 85% 29.88 in 9.0 mi West 12.7 mph 18.4 mph N/A   Overcast
9:29 AM 30.2 °F 21.9 °F 26.6 °F 86% 29.87 in 7.0 mi West 9.2 mph - N/A   Overcast
9:53 AM 30.9 °F 20.7 °F 27.0 °F 85% 29.93 in 9.0 mi West 13.8 mph 20.7 mph 0.00 in   Overcast
9:58 AM 30.2 °F 21.9 °F 26.6 °F 86% 29.89 in 9.0 mi West 9.2 mph 20.7 mph 0.00 in   Overcast
10:06 AM 30.2 °F 21.3 °F 26.6 °F 86% 29.89 in 8.0 mi West 10.4 mph - 0.00 in   Overcast
10:53 AM 30.9 °F 22.8 °F 28.0 °F 89% 29.96 in 6.0 mi West 9.2 mph - 0.00 in   Overcast
11:03 AM 30.2 °F 20.8 °F 28.4 °F 93% 29.93 in 5.0 mi West 11.5 mph - 0.00 in Snow Light Snow
11:21 AM 30.2 °F 22.6 °F 26.6 °F 86% 29.92 in 9.0 mi WSW 8.1 mph - 0.00 in   Overcast
11:53 AM 32.0 °F 23.0 °F 27.0 °F 82% 29.94 in 10.0 mi WSW 11.5 mph - 0.00 in   Overcast
12:53 PM 32.0 °F 22.1 °F 25.0 °F 75% 29.94 in 10.0 mi WSW 13.8 mph 17.3 mph N/A   Overcast
1:53 PM 33.1 °F 25.5 °F 26.1 °F 75% 29.94 in 10.0 mi WSW 9.2 mph - N/A   Overcast
2:53 PM 34.0 °F 26.6 °F 25.0 °F 70% 29.96 in 10.0 mi SW 9.2 mph - N/A   Overcast
3:53 PM 35.1 °F 27.9 °F 25.0 °F 67% 29.98 in 10.0 mi SW 9.2 mph - N/A   Scattered Clouds
4:53 PM 33.1 °F 24.9 °F 25.0 °F 72% 29.98 in 10.0 mi SSW 10.4 mph - N/A   Clear
5:53 PM 32.0 °F 23.6 °F 25.0 °F 75% 29.99 in 10.0 mi South 10.4 mph - N/A   Clear
6:53 PM 30.9 °F 22.2 °F 25.0 °F 79% 30.02 in 10.0 mi SSW 10.4 mph - N/A   Clear
7:53 PM 30.9 °F 22.8 °F 25.0 °F 79% 30.01 in 10.0 mi South 9.2 mph - N/A   Clear
8:53 PM 30.9 °F 23.5 °F 25.0 °F 79% 29.99 in 10.0 mi South 8.1 mph - N/A   Clear
9:53 PM 32.0 °F 23.0 °F 26.1 °F 79% 29.96 in 10.0 mi South 11.5 mph 18.4 mph N/A   Clear
10:53 PM 32.0 °F 24.2 °F 27.0 °F 82% 29.97 in 10.0 mi South 9.2 mph 17.3 mph N/A   Clear
11:53 PM 35.1 °F 26.9 °F 28.0 °F 76% 29.94 in 10.0 mi South 11.5 mph 19.6 mph N/A   Clear